Location: Unspecified
(0.0000°N, 0.0000°E)
Time: 13:25:17
(UTC+00:00)

Kosmos-1333 - Pass Details

Date: 21 May 2026
Orbit: 964 x 1010 km, 82.9° (Epoch: 5 June)

Event Time Altitude Azimuth Distance (km) Brightness Sun altitude
Exits shadow 21:29:13 15° 301° (WNW) 2,418 9.5 -48.6°
Drops below altitude 10° 21:30:53 10° 315° (NW) 2,754 9.8 -49.0°
Sets 21:34:17 0° 333° (NNW) 3,708 10.6 -49.7°
